When you browse on this site, cookies collect data to enhance your experience and personalize the content and advertising you see.
Visit our Privacy Policy to learn more. By continuing to use the site, you agree to this use of cookies and data.

Meteo orario Gorbachevo

Oggi, 11 Luglio, Sabato

Tempo Temperatura Precipitazioni Vento Pressione Umidità
00:00 +14°C° 0 mm 3 m/s 752 mm Hg 86%
01:00 +13°C° 0 mm 3 m/s 752 mm Hg 86%
02:00 +14°C° 0 mm 2 m/s 752 mm Hg 86%
03:00 +14°C° 0 mm 2 m/s 752 mm Hg 85%
04:00 +14°C° 0 mm 3 m/s 752 mm Hg 85%
05:00 +14°C° 0 mm 3 m/s 752 mm Hg 84%
06:00 +17°C° 0 mm 3 m/s 752 mm Hg 80%
07:00 +19°C° 0 mm 4 m/s 752 mm Hg 76%
08:00 +20°C° 0 mm 5 m/s 753 mm Hg 72%
09:00 +22°C° 0 mm 5 m/s 752 mm Hg 70%
10:00 +23°C° 0 mm 5 m/s 752 mm Hg 68%
11:00 +25°C° 0 mm 5 m/s 752 mm Hg 66%
12:00 +25°C° 0 mm 5 m/s 752 mm Hg 66%
13:00 +26°C° 0 mm 5 m/s 752 mm Hg 66%
14:00 +26°C° 0 mm 5 m/s 752 mm Hg 66%
15:00 +26°C° 0 mm 5 m/s 751 mm Hg 69%
16:00 +26°C° 0 mm 4 m/s 751 mm Hg 72%
17:00 +26°C° 0 mm 4 m/s 751 mm Hg 75%
18:00 +23°C° 0 mm 4 m/s 751 mm Hg 80%
19:00 +22°C° 0 mm 3 m/s 751 mm Hg 85%
20:00 +20°C° 0 mm 3 m/s 751 mm Hg 90%
21:00 +20°C° 0 mm 3 m/s 751 mm Hg 91%
22:00 +19°C° 0 mm 3 m/s 751 mm Hg 92%
23:00 +18°C° 0 mm 3 m/s 751 mm Hg 93%

Domani, 12 Luglio, Domenica

Tempo Temperatura Precipitazioni Vento Pressione Umidità
00:00 +18°C° 0 mm 3 m/s 751 mm Hg 93%
01:00 +17°C° 0 mm 3 m/s 750 mm Hg 94%
02:00 +17°C° 0 mm 3 m/s 750 mm Hg 94%
03:00 +17°C° 0 mm 3 m/s 750 mm Hg 93%
04:00 +17°C° 0 mm 2 m/s 750 mm Hg 91%
05:00 +18°C° 0 mm 2 m/s 750 mm Hg 90%
06:00 +19°C° 0 mm 2 m/s 750 mm Hg 85%
07:00 +21°C° 0 mm 2 m/s 750 mm Hg 81%
08:00 +22°C° 0 mm 3 m/s 750 mm Hg 76%
09:00 +24°C° 0 mm 3 m/s 749 mm Hg 73%
10:00 +26°C° 0 mm 3 m/s 749 mm Hg 69%
11:00 +27°C° 0 mm 3 m/s 749 mm Hg 66%
12:00 +27°C° 0 mm 4 m/s 749 mm Hg 66%
13:00 +27°C° 0 mm 4 m/s 748 mm Hg 65%
14:00 +27°C° 0 mm 4 m/s 748 mm Hg 64%
15:00 +27°C° 0 mm 3 m/s 748 mm Hg 67%
16:00 +27°C° 0 mm 3 m/s 747 mm Hg 69%
17:00 +26°C° 0 mm 3 m/s 747 mm Hg 71%
18:00 +25°C° 0 mm 2 m/s 747 mm Hg 76%
19:00 +23°C° 0 mm 2 m/s 747 mm Hg 80%
20:00 +20°C° 0 mm 2 m/s 746 mm Hg 85%
21:00 +20°C° 0 mm 2 m/s 746 mm Hg 85%
22:00 +19°C° 0 mm 2 m/s 746 mm Hg 86%
23:00 +18°C° 0 mm 2 m/s 746 mm Hg 86%

Dopodomani, 13 Luglio, Lunedi

Tempo Temperatura Precipitazioni Vento Pressione Umidità
00:00 +18°C° 0 mm 2 m/s 746 mm Hg 87%
01:00 +17°C° 0 mm 2 m/s 746 mm Hg 88%
02:00 +18°C° 0 mm 1 m/s 745 mm Hg 90%
03:00 +18°C° 0 mm 1 m/s 745 mm Hg 89%
04:00 +19°C° 0 mm 1 m/s 745 mm Hg 88%
05:00 +19°C° 0 mm 1 m/s 744 mm Hg 87%
06:00 +21°C° 0 mm 1 m/s 744 mm Hg 82%
07:00 +20°C° 0 mm 0 m/s 744 mm Hg 77%
08:00 +22°C° 0 mm 0 m/s 745 mm Hg 71%
09:00 +23°C° 0.1 mm 0 m/s 744 mm Hg 68%
10:00 +26°C° 0.1 mm 1 m/s 744 mm Hg 64%
11:00 +26°C° 0.1 mm 1 m/s 744 mm Hg 61%
12:00 +27°C° 0.1 mm 1 m/s 743 mm Hg 60%
13:00 +27°C° 0.1 mm 1 m/s 743 mm Hg 59%
14:00 +27°C° 0.1 mm 1 m/s 743 mm Hg 59%
15:00 +26°C° 0.6 mm 2 m/s 743 mm Hg 66%
16:00 +25°C° 0.6 mm 2 m/s 742 mm Hg 74%
17:00 +24°C° 0.6 mm 3 m/s 742 mm Hg 82%
18:00 +22°C° 0.7 mm 4 m/s 742 mm Hg 85%
19:00 +20°C° 0.7 mm 4 m/s 742 mm Hg 89%
20:00 +19°C° 0.7 mm 5 m/s 742 mm Hg 93%
21:00 +17°C° 1.7 mm 5 m/s 742 mm Hg 94%
22:00 +17°C° 1.7 mm 5 m/s 742 mm Hg 95%
23:00 +16°C° 1.7 mm 5 m/s 742 mm Hg 97%

14 Luglio, Martedi

Tempo Temperatura Precipitazioni Vento Pressione Umidità
00:00 +16°C° 1.9 mm 5 m/s 742 mm Hg 97%
01:00 +16°C° 1.9 mm 5 m/s 742 mm Hg 97%
02:00 +16°C° 1.9 mm 5 m/s 741 mm Hg 97%
03:00 +15°C° 2.5 mm 5 m/s 741 mm Hg 97%
04:00 +15°C° 2.5 mm 5 m/s 741 mm Hg 97%
05:00 +15°C° 2.5 mm 5 m/s 741 mm Hg 97%
06:00 +15°C° 1.5 mm 5 m/s 741 mm Hg 97%
07:00 +15°C° 1.5 mm 5 m/s 742 mm Hg 96%
08:00 +15°C° 1.5 mm 5 m/s 742 mm Hg 96%
09:00 +15°C° 0.1 mm 5 m/s 742 mm Hg 94%
10:00 +16°C° 0.1 mm 5 m/s 742 mm Hg 93%
11:00 +16°C° 0.1 mm 5 m/s 742 mm Hg 92%
12:00 +16°C° 0 mm 6 m/s 742 mm Hg 89%
13:00 +17°C° 0 mm 6 m/s 742 mm Hg 86%
14:00 +19°C° 0 mm 6 m/s 742 mm Hg 83%
15:00 +19°C° 0 mm 5 m/s 742 mm Hg 83%
16:00 +19°C° 0 mm 5 m/s 742 mm Hg 83%
17:00 +18°C° 0 mm 4 m/s 742 mm Hg 83%
18:00 +18°C° 0 mm 4 m/s 743 mm Hg 85%
19:00 +18°C° 0 mm 4 m/s 743 mm Hg 86%
20:00 +17°C° 0 mm 4 m/s 743 mm Hg 87%
21:00 +17°C° 0 mm 4 m/s 743 mm Hg 87%
22:00 +15°C° 0 mm 4 m/s 743 mm Hg 87%
23:00 +15°C° 0 mm 4 m/s 743 mm Hg 87%

15 Luglio, Mercoledi

Tempo Temperatura Precipitazioni Vento Pressione Umidità
00:00 +15°C° 0 mm 4 m/s 743 mm Hg 84%
01:00 +15°C° 0 mm 4 m/s 743 mm Hg 81%
02:00 +15°C° 0 mm 5 m/s 742 mm Hg 78%
03:00 +15°C° 0.1 mm 5 m/s 743 mm Hg 80%
04:00 +15°C° 0.1 mm 5 m/s 743 mm Hg 82%
05:00 +14°C° 0.1 mm 5 m/s 743 mm Hg 83%
06:00 +15°C° 0.1 mm 5 m/s 743 mm Hg 81%
07:00 +16°C° 0.1 mm 6 m/s 743 mm Hg 80%
08:00 +16°C° 0.1 mm 6 m/s 743 mm Hg 78%
09:00 +16°C° 0.5 mm 6 m/s 743 mm Hg 80%
10:00 +16°C° 0.5 mm 5 m/s 743 mm Hg 82%
11:00 +16°C° 0.5 mm 5 m/s 743 mm Hg 83%
12:00 +16°C° 0.8 mm 5 m/s 743 mm Hg 84%
13:00 +16°C° 0.8 mm 5 m/s 744 mm Hg 84%
14:00 +16°C° 0.8 mm 5 m/s 744 mm Hg 85%
15:00 +15°C° 0.6 mm 4 m/s 744 mm Hg 87%
16:00 +14°C° 0.6 mm 4 m/s 744 mm Hg 89%
17:00 +13°C° 0.6 mm 4 m/s 744 mm Hg 91%
18:00 +13°C° 0.2 mm 3 m/s 744 mm Hg 91%
19:00 +12°C° 0.2 mm 3 m/s 745 mm Hg 92%
20:00 +12°C° 0.2 mm 3 m/s 745 mm Hg 93%
21:00 +12°C° 0.1 mm 3 m/s 745 mm Hg 93%
22:00 +12°C° 0.1 mm 3 m/s 745 mm Hg 93%
23:00 +12°C° 0.1 mm 3 m/s 745 mm Hg 93%

16 Luglio, Giovedi

Tempo Temperatura Precipitazioni Vento Pressione Umidità
00:00 +12°C° 0.1 mm 3 m/s 744 mm Hg 91%
01:00 +12°C° 0.1 mm 3 m/s 744 mm Hg 90%
02:00 +12°C° 0.1 mm 4 m/s 744 mm Hg 88%
03:00 +12°C° 0 mm 3 m/s 744 mm Hg 88%
04:00 +12°C° 0 mm 3 m/s 744 mm Hg 88%
05:00 +12°C° 0 mm 3 m/s 744 mm Hg 87%
06:00 +13°C° 0 mm 3 m/s 744 mm Hg 85%
07:00 +14°C° 0 mm 3 m/s 744 mm Hg 84%
08:00 +16°C° 0 mm 3 m/s 744 mm Hg 82%
09:00 +18°C° 0.1 mm 4 m/s 744 mm Hg 77%
10:00 +19°C° 0.1 mm 4 m/s 744 mm Hg 72%
11:00 +20°C° 0.1 mm 4 m/s 744 mm Hg 66%
12:00 +21°C° 0.1 mm 4 m/s 743 mm Hg 67%
13:00 +21°C° 0.1 mm 4 m/s 743 mm Hg 67%
14:00 +21°C° 0.1 mm 4 m/s 743 mm Hg 68%
15:00 +21°C° 0.1 mm 3 m/s 743 mm Hg 70%
16:00 +21°C° 0.1 mm 3 m/s 743 mm Hg 71%
17:00 +21°C° 0.1 mm 2 m/s 743 mm Hg 73%
18:00 +19°C° 0 mm 2 m/s 743 mm Hg 78%
19:00 +19°C° 0 mm 1 m/s 743 mm Hg 82%
20:00 +16°C° 0 mm 1 m/s 743 mm Hg 86%
21:00 +15°C° 0 mm 1 m/s 743 mm Hg 87%
22:00 +15°C° 0 mm 1 m/s 743 mm Hg 88%
23:00 +14°C° 0 mm 1 m/s 743 mm Hg 90%
Mostrare altro